THORAD AGENA D DEB, 42497

Orbit data source: Space-Track

THORAD AGENA D DEB, 42497 is space debris in LEO originally from a launch on Wed, 08 Apr 1970 UTC launched from the Air Force Western Test Range (AFWTR). Debris objects in space refer to the collection of defunct objects orbiting the Earth. Examples of debris include non-operational satellites, rocket bodies, and fragments generated from explosions, collisions, or faulty payload assembly.

Loading next visibility...
THORAD AGENA D DEB details
Identifier
42497, 1970-025RB
Orbit
LEO
Last TLE update2 days ago
Origin
Flag of USNASA LeRC (US)
ManufacturerUnknown
MissionSpacecraft
Bus & MotorUnknown
MassUnknown
Launch date (UTC)
1970-04-08 (55 years ago)
Launch vehicleUnknown
Launch site
Air Force Western Test Range (AFWTR)
Object type
Payload
Rocket body
Debris
Shape & HBRUnknown
Radar Cross SectionSmall (<0.1 m²)

Expand to show TLE details & history

TLE from 2 days ago
0 THORAD AGENA D DEB
1 42497U 70025RB  24335.75423571  .00006421  00000-0  46548-2 0  9993
2 42497 100.0297 154.3985 0030738 214.9266 144.9876 13.96569239559329
Epoch: 2024-11-30T18:06Z
Definitive object data (Epoch: 2024-11-30T18:06:05.965Z)
Latitude-0.00009°
Longitude172.7714°
Altitude926.9 km
Speed7.379 km/s
True Right ascension10h 17m 35s
True Declination0° 00' 00"
Sunlit
Object was in daylight at TLE epoch
Visualization TLE readout
Latitude-47.47271°
Longitude-174.46419°
Altitude928.129 km
Speed7.385 km/s
Apparent Right ascension14h 17m 04s
Apparent Declination-54° 45' 46"
Sunlit
Object is in daylight
Visualization observer readout
Local Sidereal Time05:27:55
Azimuth131.48° SE
Elevation-55.27°
Doppler factor1
Orbital elements
Apogee altitude925.337 km
Perigee altitude880.576 km
Semi-major axis7,281.094 km
Eccentricity0.0030738
Inclination100.0297°
RAAN154.3985°
Arg. of periapsis214.9266°
True anomaly145.18906°
Mean anomaly144.9876°
Eccentric anomaly145.08839°
Mean motion3.4934 °/min
BSTAR0.0046548
Orbital period103.05 mins
Loading maneuver chart data...

THORAD AGENA D DEB Visibility forecast

Observer location: undefined°, undefined

Span
Click to sort rows by Start time (UTC) header in descending order
Start Az.
Max El. time (UTC)
Max El. Az.
Max El.
End time (UTC)
End Az.
11 mins2024-12-02 11:28:48.701Z142.612° SSE2024-12-02 11:33:48.701Z84.438° E37.62°2024-12-02 11:39:48.701Z355.25° N
7 mins2024-12-02 13:12:48.701Z223.405° SW2024-12-02 13:15:48.701Z260.011° W21.06°2024-12-02 13:19:48.701Z309.435° NW
7 mins2024-12-03 00:01:48.701Z54.267° ENE2024-12-03 00:04:48.701Z93.993° ESE22.005°2024-12-03 00:08:48.701Z143.835° SSE
9 mins2024-12-03 01:42:48.701Z357.249° N2024-12-03 01:46:48.701Z290.087° WNW36.131°2024-12-03 01:51:48.701Z221.084° SW
|